This demonstration page uses our WeatherBlox Daily Observations layout. Learn more.

Left ArrowRight Arrow

Hourly Observations for December 3, 2022

Temp ( °F °C ) Dew Point ( °F °C ) Humidity (%) Winds ( mph kmh ) Pressure ( in mb ) Visibility ( mi km ) Precip ( " mm )
12:53 am 00:53 Clear 49 9.4 44 6.7 83 83 NNE 3 6 30.35 1028 10 16 0.00 0.00
1:53 am 01:53 Partly Cloudy 49 9.4 44 6.7 83 83 Calm 30.35 1028 10 16 0.00 0.00
2:53 am 02:53 Clear 48 8.9 43 6.1 83 83 NE 5 7 30.36 1028 10 16 0.00 0.00
3:53 am 03:53 Cloudy 50 10 44 6.7 80 80 Calm 30.32 1027 10 16 0.00 0.00
4:53 am 04:53 Partly Cloudy 49 9.4 45 7.2 86 86 Calm 30.32 1027 10 16 0.00 0.00
5:53 am 05:53 Cloudy 52 11.1 47 8.3 83 83 Calm 30.31 1026 10 16 0.00 0.00
6:53 am 06:53 Cloudy 52 11.1 48 8.9 86 86 Calm 30.33 1027 10 16 0.00 0.00
7:53 am 07:53 Cloudy 53 11.7 49 9.4 86 86 Calm 30.33 1027 10 16 0.00 0.00
8:53 am 08:53 Cloudy 55 12.8 50 10 83 83 Calm 30.33 1027 10 16 0.00 0.00
9:53 am 09:53 Mostly Cloudy 60 15.6 54 12.2 80 80 SW 6 9 30.31 1027 10 16 0.00 0.00
10:53 am 10:53 Cloudy 60 15.6 55 12.8 83 83 WNW 13 20 30.34 1027 10 16 0.00 0.00
11:06 am 11:06 Cloudy with Light Rain 60 15.6 56 13.3 86 86 W 5 7 30.35 1028 10 16 0.01 0.13
11:12 am 11:12 Cloudy with Heavy Rain 59 15 56 13.3 90 90 SW 3 6 30.35 1028 2 3 0.05 1.27
11:23 am 11:23 Cloudy with Rain 58 14.4 57 13.9 97 97 Calm 30.35 1028 2 3 0.11 2.79
11:32 am 11:32 Cloudy with Light Rain 59 15 58 14.4 96 96 SSW 3 6 30.33 1027 4 6 0.12 3.05
11:53 am 11:53 Cloudy with Light Rain 59 15 58 14.4 96 96 SSW 3 6 30.32 1027 4 6 0.13 3.30
12:04 pm 12:04 Cloudy with Light Rain 59 15 59 15 100 100 SSW 3 6 30.32 1027 3 4 0.01 0.25
12:13 pm 12:13 Cloudy with Light Rain 59 15 59 15 100 100 SSW 3 6 30.31 1027 3 5 0.02 0.51
12:21 pm 12:21 Cloudy with Light Rain 59 15 59 15 100 100 Calm 30.31 1027 3 4 0.03 0.76
12:26 pm 12:26 Cloudy with Light Rain 59 15 59 15 100 100 Calm 30.31 1027 3 5 0.03 0.76
12:39 pm 12:39 Cloudy 59 15 59 15 100 100 SSW 3 6 30.30 1026 10 16 0.03 0.76
12:46 pm 12:46 Cloudy 60 15.6 59 15 96 96 SSW 5 7 30.30 1026 7 11 0.03 0.76
12:53 pm 12:53 Cloudy with Light Rain 59 15 59 15 100 100 SW 3 6 30.30 1026 5 8 0.03 0.76
1:53 pm 13:53 Cloudy 60 15.6 59 15 96 96 SW 6 9 30.27 1025 10 16 0.01 0.13
2:53 pm 14:53 Cloudy 61 16.1 60 15.6 97 97 SW 5 7 30.25 1025 10 16 0.00 0.00
3:53 pm 15:53 Cloudy 61 16.1 60 15.6 97 97 SW 3 6 30.26 1025 10 16 0.00 0.00
4:53 pm 16:53 Cloudy 61 16.1 60 15.6 97 97 Calm 30.27 1025 10 16 0.00 0.00
5:53 pm 17:53 Cloudy 61 16.1 60 15.6 97 97 Calm 30.27 1025 10 16 0.00 0.00
6:43 pm 18:43 Cloudy 61 16.1 60 15.6 97 97 Calm 30.28 1025 10 16 0.00 0.00
6:53 pm 18:53 Cloudy 61 16.1 60 15.6 97 97 Calm 30.28 1026 10 16 0.00 0.00
7:53 pm 19:53 Cloudy 60 15.6 60 15.6 100 100 Calm 30.29 1026 8 13 0.00 0.00
8:34 pm 20:34 Cloudy with Mist and Fog 59 15 59 15 100 100 Calm 30.30 1026 2 3 0.00 0.00
8:43 pm 20:43 Cloudy 60 15.6 59 15 96 96 Calm 30.30 1026 3 5 0.00 0.00
8:53 pm 20:53 Cloudy 60 15.6 59 15 96 96 N 3 6 30.30 1026 8 13 0.00 0.00
9:37 pm 21:37 Cloudy 59 15 58 14.4 96 96 NNW 6 9 30.30 1026 10 16 0.00 0.00
9:53 pm 21:53 Cloudy 59 15 58 14.4 96 96 NW 5 7 30.30 1026 10 16 0.00 0.00
10:53 pm 22:53 Partly Cloudy 56 13.3 56 13.3 100 100 NW 5 7 30.29 1026 10 16 0.00 0.00
11:53 pm 23:53 Clear 55 12.8 54 12.2 96 96 Calm 30.28 1025 10 16 0.00 0.00

Powered by AerisWeather